This demonstration page uses our WeatherBlox Daily Observations layout. Learn more.

Left ArrowRight Arrow

Hourly Observations for May 1, 2017

Temp ( °F °C ) Dew Point ( °F °C ) Humidity (%) Winds ( mph kmh ) Pressure ( in mb ) Visibility ( mi km ) Precip ( " mm )
12:53 am 00:53 Cloudy 70 21.1 64 17.8 82 82 ESE 7 11 29.93 1013 10 16 0.00 0.00
1:53 am 01:53 Clear 70 21.1 65 18.3 84 84 VRB 3 6 29.89 1012 10 16 0.00 0.03
2:53 am 02:53 Clear 71 21.7 65 18.3 81 81 SE 7 11 29.88 1012 10 16 0.00 0.00
3:53 am 03:53 Clear 70 21.1 65 18.3 84 84 E 6 9 29.85 1011 10 16 0.00 0.00
4:53 am 04:53 Clear 71 21.7 66 18.9 84 84 SSE 7 11 29.86 1011 10 16 0.00 0.00
5:53 am 05:53 Mostly Cloudy 72 22.2 66 18.9 82 82 SSW 5 7 29.87 1012 10 16 0.00 0.00
6:53 am 06:53 Mostly Cloudy 72 22.2 66 18.9 82 82 SSE 13 20 29.87 1011 10 16 0.00 0.03
7:53 am 07:53 Cloudy with Light Rain 72 22.2 67 19.4 84 84 S 10 17 29.86 1011 10 16 0.00 0.03
8:53 am 08:53 Cloudy with Light Rain 72 22.2 69 20.6 91 91 S 14 22 29.87 1011 7 11 0.01 0.25
9:29 am 09:29 Cloudy with Nearby Thunderstorms 72 22.2 69 20.6 91 91 S 12 19 29.85 1011 4 6 0.04 1.02
9:32 am 09:32 Cloudy with Nearby Thunderstorms 72 22 70 21 94 94 S 12 19 29.85 1011 3 4 0.00 0.00
9:36 am 09:36 Cloudy with Nearby Thunderstorms 72 22 70 21 94 94 S 16 26 29.85 1011 2 3 0.00 0.00
9:38 am 09:38 Cloudy with Heavy Rain 72 22 70 21 94 94 S 18 30 29.85 1011 2 3 0.00 0.00
9:53 am 09:53 Cloudy with Light Rain 70 21.1 70 21.1 100 100 SW 15 24 29.88 1012 2 3 0.22 5.59
9:56 am 09:56 Cloudy with Light Rain 70 21 70 21 100 100 SW 12 19 29.88 1012 4 6 0.00 0.00
10:00 am 10:00 Cloudy with Nearby Thunderstorms 70 21 70 21 100 100 W 15 24 29.88 1012 3 5 0.00 0.00
10:07 am 10:07 Cloudy with Nearby Thunderstorms 67 19.4 66 18.9 97 97 W 12 19 29.94 1014 3 5 0.00 0.03
10:14 am 10:14 Cloudy with Light Rain 66 19 64 18 94 94 WSW 12 19 29.94 1014 8 13 0.00 0.00
10:21 am 10:21 Cloudy with Light Rain 65 18.3 62 16.7 90 90 W 13 20 29.94 1014 10 16 0.00 0.03
10:53 am 10:53 Cloudy 63 17.2 58 14.4 84 84 W 9 15 29.92 1013 10 16 0.00 0.03
11:20 am 11:20 Cloudy 63 17 55 13 77 77 WSW 8 13 29.97 1015 10 16 0.00 0.00
11:53 am 11:53 Cloudy 64 17.8 52 11.1 65 65 SW 14 22 29.96 1014 10 16 0.00 0.00
12:53 pm 12:53 Mostly Cloudy 66 18.9 50 10 56 56 SW 9 15 29.93 1014 10 16 0.00 0.00
1:53 pm 13:53 Cloudy 68 20 49 9.4 51 51 SSW 10 17 29.91 1013 10 16 0.00 0.00
2:53 pm 14:53 Mostly Cloudy 70 21.1 49 9.4 47 47 WSW 13 20 29.88 1012 10 16 0.00 0.00
3:53 pm 15:53 Cloudy 73 22.8 46 7.8 38 38 SW 12 19 29.85 1011 10 16 0.00 0.00
4:53 pm 16:53 Sunny 75 23.9 49 9.4 40 40 SW 10 17 29.83 1010 10 16 0.00 0.00
5:53 pm 17:53 Sunny 76 24.4 49 9.4 39 39 SW 14 22 29.83 1010 10 16 0.00 0.00
6:53 pm 18:53 Sunny 76 24.4 43 6.1 31 31 WSW 13 20 29.83 1010 10 16 0.00 0.00
7:53 pm 19:53 Partly Cloudy 81 27 64 18 58 58 SSE 6 9 29.97 1015 10 16 0.00 0.00
8:53 pm 20:53 Clear 71 21.7 38 3.3 30 30 WSW 7 11 29.85 1011 10 16 0.00 0.00
9:53 pm 21:53 Clear 66 18.9 41 5 40 40 SW 6 9 29.87 1012 10 16 0.00 0.00
10:53 pm 22:53 Clear 66 18.9 39 3.9 37 37 WSW 7 11 29.89 1012 10 16 0.00 0.00
11:53 pm 23:53 Clear 63 17.2 41 5 45 45 SSW 6 9 29.91 1013 10 16 0.00 0.00

Powered by AerisWeather